Location: Zagreb
(45.8000°N, 16.0000°E)
Time: 09:21:42
(UTC+02:00)

ISS - Visible Passes

Search period start: 29 April 2017 00:00
Search period end: 09 May 2017 00:00
Orbit: 401 x 409 km, 51.6° (Epoch: 29 April)

Date Brightness Start Highest point End Pass type
(mag) Time Alt. Az. Time Alt. Az. Time Alt. Az.
06 May -1.8 04:45:13 10° S 04:47:43 20° SE 04:50:14 10° E visible
07 May -1.2 03:54:35 10° SSE 03:55:51 12° SE 03:57:06 10° ESE visible
08 May -3.1 04:36:59 12° SW 04:39:46 43° SE 04:42:54 10° ENE visible
